Date String (YYYY-MM-DD hh:mm:ss) UTC,Instrument flags,absolute air pressure of the measurement (hPa),sample flow rate (lpm),inlet stack bypass flow (lpm),air temperature of the measurement (°C),ambient temperature measured by the external sensor (°C),aerosol sample conditioner tube jacket temperature (°C),OPC LED temperature (°C),internal box temperature (°C),relative humidity of the measurement (%),span deviation,mass concentration of particles derived from Lorenz-Mie calculation of OPC scattering (μg/m³),mass concentration of particles derived from Lorenz-Mie calculation of OPC scattering (μg/m³),mass concentration of particles derived from Lorenz-Mie calculation of OPC scattering (μg/m³)
DateTimeUTC,F1_M11,P_M11,Q1_M11,Q2_M11,T1_M11,T2_M11,T3_M11,T4_M11,T5_M11,U1_M11,ZSPAN_M11,X2_M11,X0_M11,X1_M11
2024-03-06 02:00:00,SystemResetWarning,0825.0,4.99,000.00,019.5,018.9,000.0,027.9,021.2,15.4,0000.0,0001.63,0005.48,0001.02
2024-03-06 02:01:00,SystemResetWarning,0824.9,5.00,000.00,019.5,018.9,000.0,027.9,021.2,15.3,0000.0,0001.76,0005.89,0001.13
2024-03-06 02:02:00,SystemResetWarning,0825.0,5.00,000.00,019.5,018.9,000.0,027.9,021.2,15.3,0000.0,0002.12,0007.70,0001.34
2024-03-06 02:03:00,SystemResetWarning,0825.0,5.01,000.00,019.5,018.9,000.0,027.8,021.2,15.3,0000.0,0002.51,0009.22,0001.55
2024-03-06 02:04:00,SystemResetWarning,0825.0,5.01,000.00,019.5,018.9,000.0,027.9,021.2,15.3,0000.0,0002.90,0010.51,0001.77
2024-03-06 02:05:00,SystemResetWarning,0824.9,5.01,000.00,019.5,018.9,000.0,027.9,021.2,15.3,0000.0,0003.19,0011.75,0002.03
2024-03-06 02:06:00,SystemResetWarning,0824.9,5.00,000.00,019.5,018.9,000.0,027.9,021.2,15.3,0000.0,0003.37,0013.43,0002.26
2024-03-06 02:07:00,SystemResetWarning,0824.9,5.00,000.00,019.5,018.9,000.0,027.9,021.2,15.3,0000.0,0003.59,0014.64,0002.53
2024-03-06 02:08:00,SystemResetWarning,0825.0,4.99,000.00,019.5,018.9,000.0,027.9,021.2,15.2,0000.0,0003.91,0015.90,0002.88
2024-03-06 02:09:00,SystemResetWarning,0825.0,4.99,000.00,019.5,018.9,000.0,027.9,021.2,15.2,0000.0,0004.23,0017.05,0003.18
2024-03-06 02:10:00,SystemResetWarning,0825.0,5.01,000.00,019.5,018.9,000.0,027.9,021.2,15.2,0000.0,0004.56,0018.21,0003.38
2024-03-06 02:11:00,SystemResetWarning,0825.1,5.01,000.00,019.5,018.9,000.0,027.9,021.2,15.2,0000.0,0004.95,0019.78,0003.58
2024-03-06 02:12:00,SystemResetWarning,0825.1,5.00,000.00,019.5,018.9,000.0,027.9,021.2,15.2,0000.0,0005.22,0020.81,0003.74
2024-03-06 02:13:00,SystemResetWarning,0825.1,4.99,000.00,019.5,018.9,000.0,027.9,021.2,15.2,0000.0,0005.36,0021.12,0003.82
2024-03-06 02:14:00,SystemResetWarning,0825.1,5.00,000.00,019.5,018.9,000.0,027.9,021.2,15.3,0000.0,0005.46,0020.92,0003.91
2024-03-06 02:15:00,SystemResetWarning,0825.1,5.01,000.00,019.5,018.9,000.0,027.9,021.2,15.3,0000.0,0005.53,0020.27,0003.99
2024-03-06 02:16:00,SystemResetWarning,0825.1,5.00,000.00,019.5,018.9,000.0,027.9,021.2,15.3,0000.0,0005.62,0019.15,0004.06
2024-03-06 02:17:00,SystemResetWarning,0825.0,4.99,000.00,019.5,018.9,000.0,027.9,021.2,15.3,0000.0,0005.80,0019.36,0004.13
2024-03-06 02:18:00,SystemResetWarning,0825.0,5.01,000.00,019.5,018.9,000.0,027.9,021.2,15.2,0000.0,0005.88,0018.95,0004.18
2024-03-06 02:19:00,SystemResetWarning,0825.0,5.01,000.00,019.5,018.9,000.0,027.9,021.2,15.2,0000.0,0005.89,0019.83,0004.18
2024-03-06 02:20:00,SystemResetWarning,0825.0,5.00,000.00,019.5,018.9,000.0,027.9,021.2,15.2,0000.0,0005.89,0021.54,0004.17
2024-03-06 02:21:00,SystemResetWarning,0825.0,4.98,000.00,019.5,018.9,000.0,027.9,021.2,15.2,0000.0,0005.83,0022.18,0004.16
2024-03-06 02:22:00,SystemResetWarning,0825.0,5.00,000.00,019.5,018.9,000.0,027.9,021.2,15.2,0000.0,0005.75,0022.56,0004.15
2024-03-06 02:23:00,SystemResetWarning,0825.0,5.01,000.00,019.6,018.9,000.0,027.9,021.3,15.2,0000.0,0005.69,0022.57,0004.14
2024-03-06 02:24:00,SystemResetWarning,0825.0,5.00,000.00,019.6,018.9,000.0,027.9,021.2,15.2,0000.0,0005.61,0022.49,0004.14
2024-03-06 02:25:00,SystemResetWarning,0825.0,5.00,000.00,019.6,018.9,000.0,027.9,021.3,15.2,0000.0,0005.62,0022.52,0004.15
2024-03-06 02:26:00,SystemResetWarning,0825.1,5.00,000.00,019.6,018.9,000.0,027.9,021.3,15.2,0000.0,0005.67,0022.86,0004.18
2024-03-06 02:27:00,SystemResetWarning,0825.1,5.01,000.00,019.6,018.9,000.0,027.9,021.3,15.2,0000.0,0005.69,0023.51,0004.19
2024-03-06 02:28:00,SystemResetWarning,0825.1,5.00,000.00,019.6,018.9,000.0,027.9,021.3,15.2,0000.0,0005.68,0022.39,0004.19
2024-03-06 02:29:00,SystemResetWarning,0825.1,5.00,000.00,019.6,018.9,000.0,027.9,021.3,15.1,0000.0,0005.62,0022.28,0004.18
2024-03-06 02:30:00,SystemResetWarning,0825.1,5.00,000.00,019.6,018.9,000.0,027.9,021.3,15.1,0000.0,0005.58,0021.05,0004.19
2024-03-06 02:31:00,SystemResetWarning,0825.1,5.00,000.00,019.6,018.9,000.0,027.9,021.3,15.1,0000.0,0005.63,0019.90,0004.20
2024-03-06 02:32:00,SystemResetWarning,0825.1,4.99,000.00,019.6,018.9,000.0,027.9,021.3,15.1,0000.0,0005.65,0019.51,0004.22
2024-03-06 02:33:00,SystemResetWarning,0825.1,4.99,000.00,019.6,018.9,000.0,027.9,021.3,15.1,0000.0,0005.65,0018.74,0004.23
2024-03-06 02:34:00,SystemResetWarning,0825.1,4.99,000.00,019.6,018.9,000.0,027.9,021.3,15.1,0000.0,0005.70,0019.81,0004.23
2024-03-06 02:35:00,SystemResetWarning,0825.1,5.00,000.00,019.6,018.9,000.0,027.9,021.3,15.2,0000.0,0005.73,0019.14,0004.24
2024-03-06 02:36:00,SystemResetWarning,0825.1,5.00,000.00,019.6,018.9,000.0,027.9,021.3,15.2,0000.0,0005.74,0019.16,0004.25
2024-03-06 02:37:00,SystemResetWarning,0825.1,5.00,000.00,019.6,018.9,000.0,027.9,021.3,15.2,0000.0,0005.68,0018.76,0004.23
2024-03-06 02:38:00,SystemResetWarning,0825.1,5.01,000.00,019.6,018.9,000.0,027.9,021.3,15.2,0000.0,0005.62,0018.43,0004.21
2024-03-06 02:39:00,SystemResetWarning,0825.1,5.00,000.00,019.6,018.9,000.0,027.9,021.2,15.2,0000.0,0005.54,0018.12,0004.22
2024-03-06 02:40:00,SystemResetWarning,0825.1,4.99,000.00,019.6,018.9,000.0,027.9,021.2,15.3,0000.0,0005.53,0019.11,0004.24
2024-03-06 02:41:00,SystemResetWarning,0825.1,5.01,000.00,019.6,018.9,000.0,027.9,021.2,15.3,0000.0,0005.53,0019.43,0004.25
2024-03-06 02:42:00,SystemResetWarning,0825.1,5.01,000.00,019.6,018.9,000.0,027.9,021.2,15.3,0000.0,0005.46,0018.88,0004.26
2024-03-06 02:43:00,SystemResetWarning,0825.1,5.00,000.00,019.6,018.9,000.0,027.9,021.2,15.3,0000.0,0005.42,0018.70,0004.28
2024-03-06 02:44:00,SystemResetWarning,0825.1,4.99,000.00,019.6,018.9,000.0,027.9,021.2,15.4,0000.0,0005.45,0019.01,0004.29
2024-03-06 02:45:00,SystemResetWarning,0825.0,5.00,000.00,019.6,018.9,000.0,027.9,021.2,15.4,0000.0,0005.45,0017.79,0004.30
2024-03-06 02:46:00,SystemResetWarning,0825.0,5.01,000.00,019.6,018.9,000.0,027.9,021.2,15.3,0000.0,0005.50,0018.31,0004.33
2024-03-06 02:47:00,SystemResetWarning,0825.0,5.01,000.00,019.6,018.9,000.0,027.9,021.2,15.2,0000.0,0005.53,0017.93,0004.33
2024-03-06 02:48:00,SystemResetWarning,0825.0,5.01,000.00,019.6,018.9,000.0,027.9,021.2,15.2,0000.0,0005.55,0017.39,0004.34
2024-03-06 02:49:00,SystemResetWarning,0825.0,4.99,000.00,019.6,018.9,000.0,027.9,021.2,15.2,0000.0,0005.58,0017.97,0004.36
2024-03-06 02:50:00,SystemResetWarning,0825.0,4.99,000.00,019.6,018.9,000.0,027.9,021.2,15.1,0000.0,0005.62,0019.14,0004.37
2024-03-06 02:51:00,SystemResetWarning,0825.0,4.99,000.00,019.6,018.9,000.0,027.9,021.2,15.1,0000.0,0005.68,0018.63,0004.36
2024-03-06 02:52:00,SystemResetWarning,0824.9,5.00,000.00,019.6,018.9,000.0,027.9,021.3,15.1,0000.0,0005.67,0018.32,0004.35
2024-03-06 02:53:00,SystemResetWarning,0825.0,5.00,000.00,019.6,018.9,000.0,027.9,021.2,15.1,0000.0,0005.67,0017.94,0004.33
2024-03-06 02:54:00,SystemResetWarning,0825.0,5.00,000.00,019.6,018.9,000.0,027.9,021.2,15.1,0000.0,0005.67,0017.36,0004.31
2024-03-06 02:55:00,SystemResetWarning,0825.0,5.00,000.00,019.6,018.9,000.0,027.9,021.2,15.1,0000.0,0005.61,0017.89,0004.30
2024-03-06 02:56:00,SystemResetWarning,0825.0,4.98,000.00,019.6,018.9,000.0,027.9,021.2,15.1,0000.0,0005.55,0018.55,0004.30
2024-03-06 02:57:00,SystemResetWarning,0825.0,4.98,000.00,019.6,018.9,000.0,027.9,021.2,15.0,0000.0,0005.50,0018.89,0004.27
2024-03-06 02:58:00,SystemResetWarning,0825.1,5.00,000.00,019.6,018.9,000.0,027.9,021.3,15.0,0000.0,0005.41,0019.43,0004.25
2024-03-06 02:59:00,SystemResetWarning,0825.1,5.01,000.00,019.6,018.9,000.0,027.9,021.3,15.0,0000.0,0005.36,0019.84,0004.22
